Overview Statistics Trail Chart Weather Telemetry Raw packets
 

This is the latest recevied weather packets stored in our database for station/object KI6SYE. If no packets are shown the sender has not sent any weather packets the latest 10 day(s).

<< 33 34 35 36 37 38 39 >>
Time Temp. Humidity Pressure Rain* Wind** Luminosity Snow
1788450061 22.22° C 76% 1014.3 hPa 0 mm - 256 W/m² -
1788449756 21.67° C 78% 1014.3 hPa 0 mm - 243 W/m² -
1788449452 21.67° C 79% 1014.1 hPa 0 mm - 217 W/m² -
1788449148 21.11° C 81% 1014.1 hPa 0 mm - 209 W/m² -
1788448844 20.56° C 82% 1014.1 hPa 0 mm - 207 W/m² -
1788448543 20.56° C 83% 1014.3 hPa 0 mm - 162 W/m² -
1788448238 20° C 84% 1014.2 hPa 0 mm - 136 W/m² -
1788447932 20° C 84% 1014.3 hPa 0 mm - 103 W/m² -
1788447628 20° C 85% 1014.2 hPa 0 mm - 95 W/m² -
1788447322 20° C 85% 1014.5 hPa 0 mm - 90 W/m² -
1788447018 20° C 86% 1014.1 hPa 0 mm - 78 W/m² -
1788446716 20° C 86% 1014 hPa 0 mm - 69 W/m² -
1788446413 20° C 86% 1013.9 hPa 0 mm - 56 W/m² -
1788446109 20° C 86% 1014 hPa 0 mm - 51 W/m² -
1788445804 20° C 86% 1014 hPa 0 mm - 53 W/m² -
1788445499 20° C 86% 1013.9 hPa 0 mm - 66 W/m² -
1788445196 19.44° C 86% 1013.7 hPa 0 mm - 60 W/m² -
1788444891 19.44° C 86% 1013.7 hPa 0 mm - 39 W/m² -
1788444587 19.44° C 86% 1013.6 hPa 0 mm - 34 W/m² -
1788444282 19.44° C 86% 1013.7 hPa 0 mm - 33 W/m² -
1788443977 19.44° C 86% 1013.6 hPa 0 mm - 28 W/m² -
1788443673 19.44° C 87% 1013.4 hPa 0 mm - 20 W/m² -
1788443373 19.44° C 87% 1013.5 hPa 0 mm - 14 W/m² -
1788443071 19.44° C 88% 1013.6 hPa 0 mm - 10 W/m² -
1788442769 18.89° C 89% 1013.6 hPa 0 mm - 7 W/m² -

* Rain latest hour (hover to see other rain measurements)
** Current wind speed in m/s (hover to see current wind gust speed)